When you browse on this site, cookies collect data to enhance your experience and personalize the content and advertising you see.
Visit our Privacy Policy to learn more. By continuing to use the site, you agree to this use of cookies and data.
  • In Hungary
  • List of Countries
  • For 7 days
  • Water Temperature
  • Weather Map
  • News
  • Weather Widgets
  • user-avatar
    Login

    Hourly Weather Tarbagatay

    Today, 26 August, Monday

    Time Temperature Precipitation Wind Pressure Humidity
    00:00 +10°C° 0 mm 1 mps 690 mmHg 80%
    01:00 +10°C° 0 mm 1 mps 690 mmHg 83%
    02:00 +10°C° 0 mm 1 mps 690 mmHg 86%
    03:00 +8°C° 0 mm 2 mps 690 mmHg 89%
    04:00 +8°C° 0 mm 2 mps 689 mmHg 92%
    05:00 +9°C° 0.1 mm 2 mps 690 mmHg 90%
    06:00 +10°C° 0.1 mm 3 mps 690 mmHg 88%
    07:00 +11°C° 0 mm 3 mps 690 mmHg 86%
    08:00 +12°C° 0.2 mm 4 mps 690 mmHg 82%
    09:00 +13°C° 0.2 mm 4 mps 690 mmHg 77%
    10:00 +14°C° 0.2 mm 4 mps 691 mmHg 73%
    11:00 +14°C° 0.5 mm 4 mps 690 mmHg 73%
    12:00 +15°C° 0.5 mm 5 mps 690 mmHg 73%
    13:00 +15°C° 0.5 mm 5 mps 690 mmHg 74%
    14:00 +15°C° 0.8 mm 5 mps 690 mmHg 76%
    15:00 +15°C° 0.8 mm 5 mps 690 mmHg 78%
    16:00 +14°C° 0.8 mm 4 mps 690 mmHg 81%
    17:00 +13°C° 0.2 mm 4 mps 690 mmHg 85%
    18:00 +12°C° 0.2 mm 4 mps 690 mmHg 89%
    19:00 +10°C° 0.2 mm 3 mps 689 mmHg 94%
    20:00 +10°C° 0 mm 3 mps 689 mmHg 94%
    21:00 +10°C° 0 mm 3 mps 689 mmHg 95%
    22:00 +10°C° 0 mm 3 mps 689 mmHg 95%
    23:00 +11°C° 0.1 mm 4 mps 689 mmHg 95%

    Tomorrow, 27 August, Tuesday

    Time Temperature Precipitation Wind Pressure Humidity
    00:00 +11°C° 0.1 mm 4 mps 688 mmHg 94%
    01:00 +10°C° 0.1 mm 5 mps 688 mmHg 94%
    02:00 +10°C° 0.9 mm 5 mps 688 mmHg 94%
    03:00 +10°C° 0.9 mm 5 mps 688 mmHg 95%
    04:00 +10°C° 0.9 mm 5 mps 688 mmHg 95%
    05:00 +11°C° 0.9 mm 4 mps 688 mmHg 95%
    06:00 +11°C° 0.9 mm 4 mps 688 mmHg 95%
    07:00 +11°C° 0.9 mm 4 mps 689 mmHg 95%
    08:00 +12°C° 0.1 mm 4 mps 689 mmHg 93%
    09:00 +13°C° 0.1 mm 4 mps 690 mmHg 90%
    10:00 +14°C° 0.1 mm 4 mps 691 mmHg 87%
    11:00 +15°C° 0.1 mm 4 mps 691 mmHg 81%
    12:00 +17°C° 0.1 mm 4 mps 691 mmHg 76%
    13:00 +18°C° 0.1 mm 4 mps 691 mmHg 71%
    14:00 +19°C° 0.2 mm 4 mps 692 mmHg 69%
    15:00 +19°C° 0.2 mm 4 mps 692 mmHg 68%
    16:00 +19°C° 0.2 mm 4 mps 692 mmHg 67%
    17:00 +18°C° 0 mm 3 mps 692 mmHg 73%
    18:00 +16°C° 0 mm 2 mps 692 mmHg 79%
    19:00 +14°C° 0 mm 1 mps 692 mmHg 85%
    20:00 +13°C° 0 mm 1 mps 692 mmHg 88%
    21:00 +12°C° 0 mm 1 mps 692 mmHg 91%
    22:00 +11°C° 0 mm 1 mps 692 mmHg 94%
    23:00 +10°C° 0 mm 0 mps 692 mmHg 95%

    Day after tomorrow, 28 August, Wednesday

    Time Temperature Precipitation Wind Pressure Humidity
    00:00 +9°C° 0 mm 0 mps 692 mmHg 95%
    01:00 +9°C° 0 mm 0 mps 692 mmHg 95%
    02:00 +8°C° 0 mm 0 mps 692 mmHg 95%
    03:00 +8°C° 0 mm 0 mps 692 mmHg 96%
    04:00 +8°C° 0 mm 0 mps 692 mmHg 96%
    05:00 +9°C° 0 mm 0 mps 693 mmHg 92%
    06:00 +11°C° 0 mm 0 mps 693 mmHg 88%
    07:00 +13°C° 0 mm 0 mps 694 mmHg 85%
    08:00 +15°C° 0 mm 0 mps 694 mmHg 75%
    09:00 +18°C° 0 mm 0 mps 695 mmHg 65%
    10:00 +23°C° 0 mm 1 mps 695 mmHg 55%
    11:00 +24°C° 0 mm 1 mps 695 mmHg 51%
    12:00 +25°C° 0 mm 1 mps 695 mmHg 48%
    13:00 +26°C° 0 mm 1 mps 694 mmHg 45%
    14:00 +23°C° 0 mm 0 mps 694 mmHg 45%
    15:00 +23°C° 0 mm 0 mps 694 mmHg 46%
    16:00 +22°C° 0 mm 0 mps 693 mmHg 46%
    17:00 +20°C° 0 mm 0 mps 693 mmHg 55%
    18:00 +17°C° 0 mm 0 mps 693 mmHg 64%
    19:00 +14°C° 0 mm 0 mps 692 mmHg 74%
    20:00 +14°C° 0 mm 0 mps 693 mmHg 77%
    21:00 +13°C° 0 mm 0 mps 693 mmHg 81%
    22:00 +12°C° 0 mm 0 mps 693 mmHg 84%
    23:00 +11°C° 0 mm 0 mps 693 mmHg 86%

    29 August, Thursday

    Time Temperature Precipitation Wind Pressure Humidity
    00:00 +11°C° 0 mm 0 mps 692 mmHg 87%
    01:00 +10°C° 0 mm 0 mps 692 mmHg 88%
    02:00 +10°C° 0 mm 0 mps 692 mmHg 89%
    03:00 +10°C° 0 mm 0 mps 692 mmHg 90%
    04:00 +9°C° 0 mm 0 mps 692 mmHg 90%
    05:00 +11°C° 0 mm 0 mps 693 mmHg 84%
    06:00 +13°C° 0 mm 0 mps 693 mmHg 78%
    07:00 +15°C° 0 mm 0 mps 693 mmHg 72%
    08:00 +17°C° 0 mm 0 mps 694 mmHg 64%
    09:00 +22°C° 0 mm 1 mps 694 mmHg 56%
    10:00 +25°C° 0 mm 1 mps 694 mmHg 48%
    11:00 +25°C° 0 mm 1 mps 694 mmHg 44%
    12:00 +26°C° 0 mm 1 mps 694 mmHg 40%
    13:00 +27°C° 0 mm 1 mps 693 mmHg 36%
    14:00 +26°C° 0 mm 1 mps 693 mmHg 37%
    15:00 +26°C° 0 mm 1 mps 693 mmHg 37%
    16:00 +25°C° 0 mm 1 mps 692 mmHg 38%
    17:00 +23°C° 0 mm 1 mps 692 mmHg 48%
    18:00 +20°C° 0 mm 1 mps 692 mmHg 57%
    19:00 +16°C° 0 mm 1 mps 691 mmHg 67%
    20:00 +14°C° 0 mm 0 mps 691 mmHg 70%
    21:00 +13°C° 0 mm 0 mps 691 mmHg 74%
    22:00 +12°C° 0 mm 0 mps 691 mmHg 77%
    23:00 +12°C° 0 mm 0 mps 691 mmHg 79%

    30 August, Friday

    Time Temperature Precipitation Wind Pressure Humidity
    00:00 +11°C° 0 mm 0 mps 691 mmHg 81%
    01:00 +11°C° 0 mm 0 mps 691 mmHg 83%
    02:00 +10°C° 0 mm 0 mps 691 mmHg 85%
    03:00 +10°C° 0 mm 0 mps 691 mmHg 87%
    04:00 +10°C° 0 mm 0 mps 691 mmHg 89%
    05:00 +12°C° 0 mm 0 mps 691 mmHg 83%
    06:00 +13°C° 0 mm 0 mps 691 mmHg 76%
    07:00 +15°C° 0 mm 0 mps 692 mmHg 70%
    08:00 +20°C° 0 mm 1 mps 692 mmHg 62%
    09:00 +22°C° 0 mm 1 mps 692 mmHg 54%
    10:00 +25°C° 0 mm 1 mps 692 mmHg 46%
    11:00 +26°C° 0 mm 1 mps 692 mmHg 42%
    12:00 +27°C° 0 mm 1 mps 692 mmHg 38%
    13:00 +28°C° 0 mm 1 mps 691 mmHg 34%
    14:00 +28°C° 0 mm 1 mps 691 mmHg 35%
    15:00 +27°C° 0 mm 1 mps 691 mmHg 35%
    16:00 +27°C° 0 mm 2 mps 690 mmHg 36%
    17:00 +24°C° 0 mm 1 mps 690 mmHg 46%
    18:00 +21°C° 0 mm 1 mps 690 mmHg 55%
    19:00 +16°C° 0 mm 0 mps 689 mmHg 65%
    20:00 +15°C° 0 mm 0 mps 689 mmHg 69%
    21:00 +14°C° 0 mm 0 mps 689 mmHg 72%
    22:00 +14°C° 0 mm 0 mps 689 mmHg 76%
    23:00 +14°C° 0.1 mm 1 mps 689 mmHg 79%

    31 August, Saturday

    Time Temperature Precipitation Wind Pressure Humidity
    00:00 +14°C° 0.1 mm 1 mps 689 mmHg 82%
    01:00 +13°C° 0.1 mm 1 mps 688 mmHg 86%
    02:00 +13°C° 0.1 mm 1 mps 688 mmHg 88%
    03:00 +13°C° 0.1 mm 1 mps 688 mmHg 90%
    04:00 +11°C° 0.1 mm 0 mps 688 mmHg 92%
    05:00 +13°C° 0 mm 0 mps 688 mmHg 90%
    06:00 +14°C° 0 mm 0 mps 688 mmHg 87%
    07:00 +15°C° 0 mm 0 mps 689 mmHg 84%
    08:00 +20°C° 0 mm 1 mps 689 mmHg 74%
    09:00 +23°C° 0 mm 1 mps 689 mmHg 63%
    10:00 +26°C° 0 mm 1 mps 689 mmHg 52%
    11:00 +27°C° 0 mm 1 mps 689 mmHg 47%
    12:00 +28°C° 0 mm 1 mps 689 mmHg 43%
    13:00 +28°C° 0 mm 1 mps 689 mmHg 38%
    14:00 +28°C° 0 mm 2 mps 689 mmHg 38%
    15:00 +28°C° 0 mm 2 mps 689 mmHg 37%
    16:00 +28°C° 0 mm 2 mps 688 mmHg 37%
    17:00 +25°C° 0 mm 1 mps 688 mmHg 47%
    18:00 +22°C° 0 mm 1 mps 688 mmHg 58%
    19:00 +17°C° 0 mm 0 mps 688 mmHg 68%
    20:00 +16°C° 0 mm 0 mps 688 mmHg 71%
    21:00 +15°C° 0 mm 0 mps 688 mmHg 74%
    22:00 +14°C° 0 mm 0 mps 688 mmHg 77%
    23:00 +14°C° 0 mm 0 mps 688 mmHg 80%
    Show more